Radiation Dose at Monitoring Post of Fukushima Daini Nuclear Power Station
Date,Time,MP-1(microSv/h),MP-2(microSv/h),MP-3(microSv/h),MP-4(microSv/h),MP-5(microSv/h),MP-6(microSv/h),MP-7(microSv/h),Wind Direction,Wind Velocity(m/s),Rain
2020/11/30,00:00,0.180,0.161,0.263,0.249,0.242,0.142,0.086,west,2.8,No
2020/11/30,00:10,0.177,0.160,0.263,0.249,0.241,0.141,0.086,west-southwest,3.3,No
2020/11/30,00:20,0.178,0.160,0.264,0.248,0.242,0.143,0.086,west-southwest,3.3,No
2020/11/30,00:30,0.177,0.160,0.264,0.249,0.242,0.142,0.086,west-southwest,3.3,No
2020/11/30,00:40,0.178,0.160,0.264,0.248,0.241,0.143,0.086,southwest,2.7,No
2020/11/30,00:50,0.177,0.160,0.263,0.248,0.243,0.141,0.086,southwest,2.7,No
2020/11/30,01:00,0.177,0.161,0.263,0.248,0.242,0.142,0.086,southwest,2.3,No
2020/11/30,01:10,0.178,0.160,0.265,0.248,0.243,0.143,0.087,west-southwest,2.1,No
2020/11/30,01:20,0.179,0.161,0.264,0.249,0.243,0.143,0.086,southwest,1.6,No
2020/11/30,01:30,0.178,0.159,0.264,0.249,0.241,0.142,0.086,-,CALM,No
2020/11/30,01:40,0.178,0.161,0.263,0.248,0.242,0.142,0.086,east-northeast,1.0,No
2020/11/30,01:50,0.179,0.161,0.263,0.248,0.243,0.142,0.086,-,CALM,No
2020/11/30,02:00,0.179,0.160,0.263,0.249,0.242,0.142,0.086,east-northeast,0.8,No
2020/11/30,02:10,0.179,0.161,0.263,0.249,0.242,0.143,0.086,northeast,0.7,No
2020/11/30,02:20,0.178,0.161,0.263,0.249,0.241,0.143,0.087,north,0.8,No
2020/11/30,02:30,0.179,0.160,0.263,0.248,0.243,0.143,0.087,north,1.0,No
2020/11/30,02:40,0.178,0.159,0.262,0.250,0.243,0.142,0.086,north,2.4,No
2020/11/30,02:50,0.178,0.160,0.264,0.249,0.241,0.142,0.086,north,2.4,No
2020/11/30,03:00,0.179,0.161,0.264,0.249,0.242,0.142,0.086,northwest,2.6,No
2020/11/30,03:10,0.179,0.160,0.263,0.250,0.242,0.142,0.087,northwest,3.4,No
2020/11/30,03:20,0.179,0.160,0.263,0.249,0.243,0.142,0.085,northwest,3.3,No
2020/11/30,03:30,0.178,0.159,0.263,0.248,0.241,0.143,0.087,northwest,2.8,No
2020/11/30,03:40,0.177,0.161,0.263,0.248,0.241,0.142,0.087,northwest,2.0,No
2020/11/30,03:50,0.179,0.160,0.263,0.249,0.243,0.141,0.085,north-northwest,2.5,No
2020/11/30,04:00,0.178,0.160,0.262,0.249,0.242,0.142,0.086,northwest,2.8,No
2020/11/30,04:10,0.178,0.159,0.264,0.249,0.241,0.142,0.086,northwest,1.6,No
2020/11/30,04:20,0.178,0.160,0.263,0.248,0.241,0.142,0.086,west-northwest,1.5,No
2020/11/30,04:30,0.179,0.160,0.263,0.249,0.242,0.142,0.086,northwest,2.8,No
2020/11/30,04:40,0.179,0.160,0.262,0.248,0.241,0.142,0.086,north-northwest,2.3,No
2020/11/30,04:50,0.177,0.161,0.264,0.248,0.241,0.141,0.086,west-northwest,2.0,No
2020/11/30,05:00,0.178,0.159,0.262,0.248,0.241,0.142,0.086,north-northwest,2.9,No
2020/11/30,05:10,0.177,0.160,0.262,0.248,0.242,0.141,0.086,northwest,2.1,No
2020/11/30,05:20,0.177,0.160,0.263,0.248,0.241,0.142,0.086,north-northwest,3.1,No
2020/11/30,05:30,0.179,0.159,0.262,0.248,0.241,0.142,0.086,northwest,3.9,No
2020/11/30,05:40,0.177,0.159,0.262,0.249,0.240,0.142,0.085,northwest,4.2,No
2020/11/30,05:50,0.178,0.159,0.262,0.249,0.242,0.142,0.086,northwest,5.3,No
2020/11/30,06:00,0.179,0.160,0.262,0.248,0.242,0.141,0.085,north-northwest,3.3,No
2020/11/30,06:10,0.178,0.160,0.263,0.249,0.241,0.141,0.086,west-northwest,2.1,No
2020/11/30,06:20,0.179,0.159,0.264,0.247,0.240,0.142,0.086,west-northwest,1.7,No
2020/11/30,06:30,0.177,0.159,0.263,0.248,0.243,0.142,0.086,northwest,2.3,No
2020/11/30,06:40,0.180,0.160,0.262,0.248,0.240,0.140,0.086,north-northwest,4.2,No
2020/11/30,06:50,0.177,0.160,0.262,0.246,0.240,0.141,0.086,north-northwest,5.5,No
2020/11/30,07:00,0.177,0.160,0.261,0.248,0.241,0.142,0.086,north-northwest,6.0,No
2020/11/30,07:10,0.179,0.160,0.262,0.247,0.241,0.141,0.086,north-northwest,7.0,No
2020/11/30,07:20,0.179,0.160,0.262,0.248,0.240,0.141,0.085,north-northwest,8.1,No
2020/11/30,07:30,0.178,0.159,0.263,0.249,0.241,0.141,0.086,north-northwest,9.2,No
2020/11/30,07:40,0.178,0.160,0.263,0.248,0.241,0.142,0.086,north-northwest,8.1,No
2020/11/30,07:50,0.179,0.160,0.262,0.247,0.241,0.141,0.086,north-northwest,8.1,No
2020/11/30,08:00,0.178,0.159,0.263,0.248,0.242,0.141,0.086,north-northwest,7.0,No
2020/11/30,08:10,0.178,0.159,0.262,0.247,0.240,0.141,0.086,north-northwest,6.4,No
2020/11/30,08:20,0.177,0.160,0.263,0.247,0.242,0.141,0.085,north-northwest,5.9,No
2020/11/30,08:30,0.178,0.160,0.261,0.248,0.241,0.142,0.085,north-northwest,6.2,No
2020/11/30,08:40,0.179,0.159,0.263,0.245,0.241,0.141,0.085,north-northwest,7.0,No
2020/11/30,08:50,0.178,0.160,0.262,0.247,0.242,0.140,0.086,north-northwest,7.0,No
2020/11/30,09:00,0.178,0.160,0.260,0.246,0.240,0.141,0.086,north-northwest,6.0,No
2020/11/30,09:10,0.178,0.160,0.262,0.246,0.242,0.141,0.086,north-northwest,7.4,No
2020/11/30,09:20,0.177,0.159,0.262,0.248,0.241,0.141,0.086,north-northwest,6.8,No
2020/11/30,09:30,0.177,0.159,0.262,0.247,0.241,0.141,0.085,north-northwest,6.3,No
2020/11/30,09:40,0.178,0.158,0.263,0.249,0.241,0.141,0.086,north-northwest,5.6,No
2020/11/30,09:50,0.176,0.160,0.262,0.248,0.241,0.143,0.085,north-northwest,6.1,No
2020/11/30,10:00,0.178,0.159,0.261,0.246,0.243,0.142,0.085,north-northwest,4.9,No
2020/11/30,10:10,0.177,0.159,0.263,0.248,0.240,0.141,0.084,north,5.2,No
2020/11/30,10:20,0.178,0.160,0.261,0.247,0.241,0.142,0.086,north,5.0,No
2020/11/30,10:30,0.177,0.159,0.262,0.247,0.240,0.141,0.085,north,5.2,No
2020/11/30,10:40,0.177,0.159,0.262,0.247,0.243,0.141,0.086,north-northeast,5.8,No
2020/11/30,10:50,0.179,0.158,0.261,0.247,0.239,0.141,0.085,north,5.8,No
2020/11/30,11:00,0.177,0.159,0.264,0.249,0.243,0.140,0.085,north,6.5,No
2020/11/30,11:10,0.177,0.160,0.261,0.247,0.239,0.142,0.086,north,6.0,No
2020/11/30,11:20,0.178,0.159,0.263,0.247,0.242,0.141,0.085,north,7.3,No
2020/11/30,11:30,0.177,0.160,0.261,0.246,0.240,0.141,0.085,north,7.7,No
2020/11/30,11:40,0.177,0.159,0.262,0.248,0.240,0.142,0.086,north,6.4,No
2020/11/30,11:50,0.177,0.159,0.264,0.247,0.240,0.141,0.085,north,6.0,No
2020/11/30,12:00,0.178,0.160,0.261,0.248,0.238,0.141,0.085,north,6.1,No
2020/11/30,12:10,0.178,0.158,0.263,0.249,0.240,0.142,0.085,north,6.6,No
2020/11/30,12:20,0.177,0.159,0.261,0.247,0.241,0.142,0.085,north,6.3,No
2020/11/30,12:30,0.178,0.160,0.262,0.248,0.242,0.141,0.085,north-northeast,8.4,No
2020/11/30,12:40,0.178,0.159,0.263,0.247,0.242,0.142,0.085,north-northeast,7.6,No
2020/11/30,12:50,0.179,0.159,0.261,0.248,0.241,0.141,0.085,north,5.9,No
2020/11/30,13:00,0.178,0.159,0.264,0.247,0.243,0.142,0.086,north,6.5,No
2020/11/30,13:10,0.178,0.160,0.263,0.247,0.241,0.142,0.085,north-northeast,4.2,No
2020/11/30,13:20,0.179,0.159,0.262,0.248,0.243,0.141,0.086,north,5.7,No
2020/11/30,13:30,0.177,0.159,0.263,0.246,0.241,0.142,0.085,north,5.4,No
2020/11/30,13:40,0.179,0.160,0.262,0.249,0.242,0.141,0.085,north,4.8,No
2020/11/30,13:50,0.177,0.160,0.263,0.247,0.242,0.142,0.085,north,5.4,No
2020/11/30,14:00,0.178,0.159,0.264,0.248,0.241,0.141,0.086,north-northwest,5.5,No
2020/11/30,14:10,0.178,0.159,0.262,0.248,0.241,0.142,0.086,north,5.4,No
2020/11/30,14:20,0.179,0.159,0.262,0.247,0.238,0.141,0.086,north-northwest,6.0,No
2020/11/30,14:30,0.177,0.159,0.263,0.248,0.240,0.141,0.086,north,5.3,No
2020/11/30,14:40,0.178,0.160,0.264,0.247,0.241,0.140,0.086,north,4.6,No
2020/11/30,14:50,0.179,0.160,0.262,0.248,0.242,0.142,0.086,north-northeast,5.0,No
2020/11/30,15:00,0.179,0.160,0.264,0.247,0.242,0.141,0.086,north-northeast,5.5,No
2020/11/30,15:10,0.177,0.160,0.263,0.247,0.242,0.141,0.085,north-northeast,4.9,No
2020/11/30,15:20,0.179,0.159,0.263,0.249,0.242,0.140,0.085,north,4.9,No
2020/11/30,15:30,0.178,0.160,0.263,0.248,0.242,0.141,0.085,north,4.6,No
2020/11/30,15:40,0.177,0.160,0.263,0.249,0.242,0.141,0.086,north,2.9,No
2020/11/30,15:50,0.178,0.159,0.263,0.248,0.242,0.142,0.085,north,3.4,No
2020/11/30,16:00,0.178,0.159,0.262,0.248,0.241,0.142,0.085,north-northwest,2.4,No
2020/11/30,16:10,0.178,0.160,0.265,0.248,0.241,0.141,0.085,north-northwest,2.9,No
2020/11/30,16:20,0.179,0.160,0.262,0.248,0.241,0.141,0.085,north,2.4,No
2020/11/30,16:30,0.178,0.159,0.264,0.248,0.242,0.142,0.085,north,2.7,No
2020/11/30,16:40,0.177,0.161,0.263,0.247,0.240,0.142,0.085,northwest,2.0,No
2020/11/30,16:50,0.179,0.161,0.262,0.248,0.241,0.142,0.087,north-northwest,2.4,No
2020/11/30,17:00,0.177,0.160,0.263,0.249,0.240,0.142,0.085,north-northwest,2.4,No
2020/11/30,17:10,0.178,0.159,0.262,0.249,0.240,0.142,0.085,north,3.1,No
2020/11/30,17:20,0.177,0.161,0.263,0.248,0.242,0.141,0.085,north,3.8,No
2020/11/30,17:30,0.179,0.159,0.263,0.248,0.241,0.141,0.086,north-northwest,4.0,No
2020/11/30,17:40,0.178,0.159,0.262,0.249,0.241,0.142,0.085,north-northwest,3.4,No
2020/11/30,17:50,0.178,0.160,0.263,0.249,0.242,0.142,0.086,north-northwest,4.1,No
2020/11/30,18:00,0.178,0.159,0.264,0.249,0.242,0.141,0.085,northwest,4.0,No
2020/11/30,18:10,0.179,0.159,0.263,0.248,0.241,0.142,0.085,northwest,4.9,No
2020/11/30,18:20,0.178,0.159,0.262,0.248,0.241,0.142,0.086,northwest,3.5,No
2020/11/30,18:30,0.178,0.160,0.262,0.249,0.240,0.142,0.086,northwest,4.3,No
2020/11/30,18:40,0.178,0.160,0.262,0.249,0.240,0.141,0.086,northwest,3.3,No
2020/11/30,18:50,0.178,0.160,0.262,0.248,0.240,0.142,0.086,northwest,4.4,No
2020/11/30,19:00,0.179,0.160,0.262,0.248,0.242,0.142,0.086,northwest,4.5,No
2020/11/30,19:10,0.178,0.161,0.264,0.248,0.242,0.141,0.085,northwest,3.8,No
2020/11/30,19:20,0.177,0.160,0.264,0.249,0.241,0.142,0.086,northwest,3.7,No
2020/11/30,19:30,0.178,0.159,0.264,0.249,0.242,0.142,0.085,northwest,3.0,No
2020/11/30,19:40,0.179,0.161,0.262,0.248,0.242,0.141,0.086,northwest,2.9,No
2020/11/30,19:50,0.178,0.161,0.263,0.248,0.240,0.142,0.086,northwest,2.9,No
2020/11/30,20:00,0.178,0.160,0.265,0.249,0.241,0.141,0.086,northwest,2.8,No
2020/11/30,20:10,0.179,0.160,0.263,0.248,0.242,0.143,0.086,northwest,3.2,No
2020/11/30,20:20,0.177,0.160,0.263,0.248,0.241,0.142,0.086,northwest,2.6,No
2020/11/30,20:30,0.178,0.160,0.263,0.249,0.241,0.142,0.086,west-northwest,1.4,No
2020/11/30,20:40,0.179,0.161,0.263,0.249,0.242,0.142,0.087,west-northwest,1.1,No
2020/11/30,20:50,0.179,0.160,0.264,0.249,0.243,0.142,0.086,-,CALM,No
2020/11/30,21:00,0.178,0.160,0.263,0.248,0.242,0.142,0.085,northwest,2.2,No
2020/11/30,21:10,0.177,0.161,0.263,0.248,0.241,0.141,0.086,north-northwest,2.8,No
2020/11/30,21:20,0.179,0.160,0.263,0.249,0.242,0.142,0.086,north-northwest,4.5,No
2020/11/30,21:30,0.177,0.160,0.263,0.248,0.242,0.141,0.085,northwest,5.9,No
2020/11/30,21:40,0.178,0.160,0.264,0.248,0.241,0.142,0.086,northwest,5.2,No
2020/11/30,21:50,0.178,0.160,0.262,0.247,0.241,0.142,0.086,northwest,5.8,No
2020/11/30,22:00,0.179,0.160,0.263,0.248,0.243,0.142,0.086,northwest,7.3,No
2020/11/30,22:10,0.178,0.161,0.264,0.248,0.241,0.142,0.087,northwest,6.1,No
2020/11/30,22:20,0.179,0.161,0.264,0.249,0.242,0.143,0.086,northwest,6.0,No
2020/11/30,22:30,0.178,0.161,0.263,0.249,0.241,0.141,0.087,northwest,7.0,No
2020/11/30,22:40,0.178,0.161,0.262,0.249,0.242,0.142,0.086,northwest,5.7,No
2020/11/30,22:50,0.178,0.160,0.264,0.249,0.242,0.142,0.086,northwest,5.2,No
2020/11/30,23:00,0.176,0.161,0.264,0.250,0.241,0.142,0.086,west-northwest,5.0,No
2020/11/30,23:10,0.178,0.161,0.263,0.249,0.242,0.142,0.086,northwest,4.9,No
2020/11/30,23:20,0.177,0.160,0.262,0.248,0.241,0.141,0.086,west-northwest,5.1,No
2020/11/30,23:30,0.176,0.160,0.262,0.249,0.240,0.142,0.086,west-northwest,4.5,No
2020/11/30,23:40,0.177,0.160,0.262,0.248,0.241,0.140,0.086,west-northwest,3.8,No
2020/11/30,23:50,0.179,0.160,0.261,0.249,0.241,0.143,0.086,northwest,4.8,No
